Regional Weather Roundup
Issued by NWS

Home | Current Version | Previous Version | Text Only | Print | Product List | Glossary On
Versions: 1 2 3 4 5 6 7 8 9 10 11 12 13 14 15 16 17 18 19 20 21 22 23 24 25 26 27 28 29 30 31 32 33 34 35 36 37 38 39 40 41 42 43 44 45 46 47 48 49 50
000
ASUS45 KREV 191010
RWRNV
NEVADA REGIONAL WEATHER ROUNDUP
NATIONAL WEATHER SERVICE RENO NV
200 AM PST FRI DEC 19 2014

NOTE: "FAIR" INDICATES FEW OR NO CLOUDS BELOW 12,000 FEET WITH NO
SIGNIFICANT WEATHER AND/OR OBSTRUCTIONS TO VISIBILITY.

NVZ001-003-004-191100-
WESTERN NEVADA

CITY           SKY/WX    TMP DP  RH WIND       PRES   REMARKS
RENO           MOCLDY    36  30  79 NW8       30.10S
CARSON CITY    FAIR      32  25  74 CALM      30.11S
MINDEN         FAIR      27  23  86 CALM      30.12
SLIDE MTN        N/A     23  12  63 W46         N/A
PYRAMID LAKE     N/A     46 N/A N/A W2          N/A
FALLON         CLOUDY    38  28  67 S10       30.10S
LOVELOCK       CLOUDY    29  23  78 CALM      30.11R
HAWTHORNE      CLEAR     39  30  70 E8        30.13S
$$

NVZ002-CAZ072-073-191100-
NORTHERN AND CENTRAL SIERRA

CITY           SKY/WX    TMP DP  RH WIND       PRES   REMARKS
S. LAKE TAHOE  CLOUDY    40  16  37 S16G22    30.14R
TRUCKEE        MOCLDY    36  23  60 SW16      30.13R
SQUAW VLY 8000   N/A     27  28 100 VRB23       N/A
SUSANVILLE     LGT RAIN  41  32  70 S9G18     30.10R
BLUE CANYON    MOCLDY    36  31  82 SE12      30.16F
MAMMOTH LAKES  FAIR      21  21 100 CALM      30.20S
BRIDGEPORT     FAIR      34   9  35 N7        30.09F
$$

NVZ030-031-036-191100-
NORTHERN NEVADA

CITY           SKY/WX    TMP DP  RH WIND       PRES   REMARKS
ELKO           MOCLDY    24  22  91 E6        30.13S
WINNEMUCCA     CLOUDY    37  28  70 S13       30.08F
WENDOVER       MOCLDY    25  18  74 CALM      30.18R
$$

NVZ035-037-191100-
CENTRAL NEVADA

CITY           SKY/WX    TMP DP  RH WIND       PRES   REMARKS
ELY            PTCLDY    19  16  88 S12       30.19S
EUREKA           N/A     25  21  85 SW5       30.16R
$$

NVZ013-014-191100-
SOUTH CENTRAL NEVADA

CITY           SKY/WX    TMP DP  RH WIND       PRES   REMARKS
TONOPAH        PTCLDY    26  23  88 N7        30.20S
$$

NVZ017-020-022-191100-
SOUTHERN NEVADA

CITY           SKY/WX    TMP DP  RH WIND       PRES   REMARKS
LAS VEGAS      PTCLDY    42  35  76 S8        30.19R
N. LAS VEGAS   CLEAR     41  34  76 N3        30.22R
NELLIS AFB     CLEAR     41  37  86 CALM      30.24R
HENDERSON      CLEAR     39  35  86 S6        30.24R
MERCURY        NOT AVBL
$$


USA.gov is the U.S. government's official web portal to all federal, state and local government web resources and services.